Weather History for FBSK - November, 2012

Change the Weather History Date:

Wednesday, November 7, 2012

  Actual Average Record
Temperature  
Mean Temperature 86 °F -  
Max Temperature 100 °F 85 °F - ()
Min Temperature 73 °F 62 °F - ()
Cooling Degree Days 22    
Growing Degree Days 36 (Base 50)    
Moisture  
Dew Point 33 °F    
Average Humidity 14    
Maximum Humidity 31    
Minimum Humidity 4    
Precipitation  
Precipitation 0.00 in - - ()
Sea Level Pressure  
Sea Level Pressure 29.94 in    
Wind  
Wind Speed 6 mph ()    
Max Wind Speed 18 mph    
Max Gust Speed -    
Visibility 6.1 miles    
Events      
T = Trace of Precipitation, MM = Missing Value Source: Averaged Metar Reports

Daily Weather History Graph

Daily Weather History Graph

Search for Another Location

Airport or City:

Trip Planner

Search our weather history database for the weather conditions in past years. The results will help you decide how hot, cold, wet, or windy it might be!

Date:

Astronomy

Nov. 07, 2012 Rise Set
Actual Time 5:25 AM CAT 6:35 PM CAT
Civil Twilight 5:01 AM CAT 6:59 PM CAT
Nautical Twilight 4:32 AM CAT 7:27 PM CAT
Astronomical Twilight 4:03 AM CAT 7:57 PM CAT
Moon 12:31 AM CAT (11/7) 12:12 PM CAT (11/7)
Length of Visible Light 13h 58m
Length of Day
13h 09m
Last Quarter, 46% of the Moon is Illuminated
Nov 7
Last Quarter
Nov 14
New
Nov 20
First Quarter
Nov 28
Full
Dec 6
Last Quarter

Hourly Weather History & Observations

Time (CAT) Temp. Dew Point Humidity Pressure Visibility Wind Dir Wind Speed Gust Speed Precip Events Conditions
12:00 AM 82.4 °F 39.2 °F 21% 29.95 in - West 4.6 mph - N/A   Clear
1:00 AM 82.4 °F 37.4 °F 20% 29.98 in - WNW 3.5 mph - N/A   Clear
2:00 AM 80 °F 38 °F 13%  in 6 mi SSW 18.4 mph - -   Mostly Cloudy
2:00 AM 80.6 °F 39.2 °F 23% 29.98 in - SSW 5.8 mph - N/A   Clear
3:00 AM 75.2 °F 39.2 °F 27% 29.95 in - WSW 6.9 mph - N/A   Clear
4:00 AM 73.4 °F 41.0 °F 31% 29.95 in - WSW 5.8 mph - N/A   Clear
5:00 AM 75.2 °F 33.8 °F 22% 29.95 in - South 8.1 mph - N/A   Clear
6:00 AM 71.6 °F 32.0 °F 23% 29.98 in - West 4.6 mph - N/A   Clear
7:00 AM 77.0 °F 35.6 °F 22% 30.01 in - East 8.1 mph - N/A   Clear
8:00 AM 83 °F 31 °F 7%  in 6 mi ESE 2.3 mph - -   Mostly Cloudy
8:00 AM 84.2 °F 30.2 °F 14% 30.01 in - Variable 2.3 mph - N/A   Clear
9:00 AM 87.8 °F 32.0 °F 14% 30.01 in - ENE 11.5 mph - N/A   Clear
10:00 AM 91.4 °F 39.2 °F 16% 29.98 in - NNE 11.5 mph - N/A   Clear
11:00 AM 95.0 °F 35.6 °F 12% 29.98 in - North 9.2 mph - N/A   Clear
12:00 PM 98.6 °F 33.8 °F 10% 29.95 in 6.2 mi Variable 3.5 mph - N/A   Scattered Clouds
1:00 PM 100.4 °F 28.4 °F 8% 29.92 in 6.2 mi Variable 4.6 mph - N/A   Scattered Clouds
2:00 PM 99 °F 28 °F 4%  in 6 mi North 4.6 mph - -   Partly Cloudy
2:00 PM 98.6 °F 28.4 °F 8% 29.89 in 6.2 mi North 4.6 mph - N/A   Mostly Cloudy
3:00 PM 98.6 °F 28.4 °F 8% 29.89 in 6.2 mi WNW 5.8 mph - N/A   Scattered Clouds
4:00 PM 98.6 °F 28.4 °F 8% 29.89 in 6.2 mi WNW 5.8 mph - N/A   Scattered Clouds
5:00 PM 98.6 °F 26.6 °F 8% 29.86 in 6.2 mi West 6.9 mph - N/A   Mostly Cloudy
6:00 PM 96.8 °F 28.4 °F 9% 29.86 in 6.2 mi SW 4.6 mph - N/A   Mostly Cloudy
7:00 PM 93.2 °F 28.4 °F 10% 29.89 in 6.2 mi South 6.9 mph - N/A   Scattered Clouds
8:00 PM 88 °F 28 °F 5%  in 6 mi South 6.9 mph - -   Scattered Clouds
8:00 PM 89.6 °F 26.6 °F 10% 29.89 in 6.2 mi South 6.9 mph - N/A   Scattered Clouds
9:00 PM 84.2 °F 28.4 °F 13% 29.92 in - SSE 6.9 mph - N/A   Clear
10:00 PM 82.4 °F 28.4 °F 14% 29.95 in - SSE 6.9 mph - N/A   Clear
11:00 PM 82.4 °F 37.4 °F 20% 29.98 in - SE 16.1 mph - N/A   Clear